RH
33 35 37 40 45 47 46 47 48 49 50 52 53 54 53 54 53 52 51 48 46 42 38 35 32 31 32 34 37 40 41 41 39 37 36 35 34 33 33 33 32 33 33 33 33 33 34 36 39 41 40 36 33 30 27 25 25 26 28 29 29 31 32 38 51 54 44 40 42 41 39 39 37 35 32 30 28 27 27 29 30 30 30 31 30
28 30 32 36 40 41 42 45 46 48 50 51 53 53 53 54 53 53 52 50 48 44 41 37 33 31 31 32 35 37 39 40 38 36 35 35 34 34 34 33 33 33 34 35 36 38 41 44 46 46 42 39 35 33 30 28 28 30 31 32 33 34 35 37 46 54 53 47 45 46 45 44 44 42 40 39 38 35 34 33 33 34 34 34 35
25 27 29 31 33 34 37 40 43 45 47 49 51 52 52 53 53 53 53 51 49 46 42 39 35 32 31 31 33 35 37 38 37 36 35 35 35 35 36 35 35 35 36 38 41 46 50 51 51 48 43 40 37 35 33 30 30 32 33 35 36 37 38 40 45 52 56 53 50 50 48 47 47 46 45 44 44 43 42 41 39 38 37 37 38
26 28 29 29 31 34 36 40 42 45 46 47 49 50 51 51 52 52 52 51 49 46 43 40 36 33 31 31 32 33 35 37 37 37 36 36 37 36 37 37 38 39 40 43 49 54 55 54 51 47 42 41 39 36 35 34 33 35 36 37 39 41 42 43 46 50 55 57 56 54 53 52 50 50 50 49 48 47 45 44 43 42 41 41 42
27 28 29 32 35 38 41 43 45 46 47 47 48 50 51 51 51 51 51 50 49 46 44 40 37 34 32 32 32 33 35 36 37 38 38 38 38 38 40 40 41 44 47 51 57 59 58 55 50 46 43 42 41 38 37 37 37 39 40 41 42 44 46 48 50 51 56 61 62 59 58 57 55 54 53 51 50 49 47 47 46 45 44 43 43
28 30 34 39 42 45 47 48 49 49 49 49 50 51 51 51 51 50 49 49 48 46 44 41 38 36 34 34 34 35 36 37 38 39 39 40 41 42 43 45 48 52 56 60 63 62 58 54 49 46 43 42 40 39 38 38 40 41 43 45 46 47 50 53 54 56 58 62 63 63 62 60 58 57 55 54 53 52 53 52 51 50 49 48 48
32 35 41 45 48 52 54 54 54 53 52 52 52 52 53 52 52 50 49 49 48 46 44 41 39 37 35 36 36 37 38 39 41 42 43 44 45 47 50 54 58 62 65 66 65 62 57 52 50 47 44 42 40 38 38 39 40 42 43 45 47 50 53 54 56 58 60 62 64 65 65 63 63 62 60 58 58 57 57 59 59 57 56 55 54
38 42 46 51 55 58 59 59 59 58 57 56 56 55 55 55 54 52 51 49 48 47 44 42 40 39 38 39 39 41 42 44 46 47 49 51 53 56 60 64 67 70 71 68 64 59 55 52 50 47 44 42 39 38 37 38 40 43 45 46 48 52 55 58 60 61 63 66 69 69 70 70 69 66 64 63 63 62 59 60 62 59 58 57 55
45 48 51 55 59 60 61 62 62 61 60 59 59 58 58 57 56 54 53 51 50 49 47 45 43 43 43 44 44 46 48 50 52 54 57 60 63 66 69 72 74 74 72 68 64 60 57 54 51 48 45 42 38 37 36 36 39 42 45 48 52 57 60 63 66 68 71 75 76 75 76 76 73 69 67 64 64 62 59 59 61 59 58 58 56
48 51 54 58 60 61 62 63 63 63 63 62 61 60 58 58 57 56 55 54 53 52 51 49 48 48 48 48 49 51 53 56 59 61 64 67 71 75 77 77 76 75 72 69 66 63 60 57 54 49 45 40 37 37 37 39 40 42 44 47 51 57 64 69 71 73 76 81 81 80 81 80 75 70 68 65 63 63 61 61 63 61 60 62 61
50 54 57 59 60 60 61 62 63 63 63 62 63 64 63 62 60 59 57 56 55 55 53 51 50 50 50 52 54 56 59 62 64 68 75 79 79 79 80 80 76 75 74 72 69 67 64 59 54 50 45 41 39 40 41 43 45 47 49 50 53 56 60 67 72 74 79 83 81 81 83 82 76 72 71 69 66 66 65 64 65 65 65 70 71
54 57 58 59 58 58 58 59 59 58 57 59 63 65 66 65 64 62 60 59 57 56 55 54 53 53 54 56 58 60 62 64 66 73 84 91 90 83 79 79 78 76 74 74 73 70 65 59 54 49 44 42 42 44 45 47 49 51 54 56 58 59 61 66 69 71 76 81 83 84 84 81 79 76 75 74 73 71 69 67 67 68 69 72 74
53 54 56 55 53 53 53 53 53 51 52 55 57 59 59 59 60 60 59 58 57 56 55 54 54 55 56 57 58 60 62 63 69 81 89 93 96 93 85 79 77 77 77 77 76 72 66 60 53 48 46 46 47 48 49 51 53 57 63 69 71 71 73 78 81 80 78 78 81 82 79 79 81 79 76 76 76 76 75 74 72 72 73 74 73
46 48 49 48 48 50 51 52 51 49 50 51 52 54 55 55 56 55 55 54 54 54 54 54 55 55 55 57 59 63 65 66 74 87 93 92 93 95 94 88 81 78 78 77 75 71 64 57 51 48 48 49 49 51 52 54 57 61 68 78 84 85 87 89 92 96 95 92 90 86 80 79 80 78 76 77 78 78 78 77 76 76 76 74 72
44 44 45 46 50 54 54 54 52 50 50 50 52 54 55 56 56 56 56 56 56 56 57 58 59 60 62 65 67 71 73 73 79 88 92 91 90 90 93 97 93 87 82 77 72 66 59 53 51 50 51 52 54 57 59 60 63 66 70 74 78 82 86 86 85 88 93 96 98 97 94 91 89 86 83 81 81 80 78 77 76 76 77 77 77
49 46 48 52 55 56 55 54 53 53 53 54 55 56 56 57 57 57 58 58 59 60 61 62 64 66 69 72 73 76 76 75 80 87 87 87 87 86 87 91 92 90 85 77 69 63 59 57 58 58 59 62 64 68 73 76 77 78 80 80 79 79 79 78 79 84 89 91 93 96 97 95 96 98 95 90 86 82 80 82 82 81 84 88 89
54 51 53 55 55 55 56 56 56 57 56 57 57 57 57 58 58 58 58 58 59 60 61 63 65 67 70 72 73 74 74 73 74 79 83 82 80 80 79 77 81 87 89 85 80 74 71 71 72 74 74 75 78 84 91 95 95 93 92 91 90 91 87 80 79 87 92 94 95 97 98 96 94 94 92 90 88 85 87 92 90 87 91 94 93
57 55 54 54 55 58 59 60 60 60 59 59 59 58 58 58 58 58 58 57 58 58 59 60 61 62 63 64 64 63 62 60 57 61 73 78 74 74 74 73 76 82 88 93 95 92 91 90 90 91 91 90 92 95 98 100 101 101 101 99 98 100 98 91 88 89 90 91 91 91 94 96 95 94 92 91 92 94 98 98 91 89 93 94 92
61 60 59 58 59 61 63 63 64 63 62 61 60 59 58 57 57 58 56 56 55 55 54 54 54 54 54 53 53 52 51 50 46 48 64 77 76 74 76 78 82 85 86 91 95 96 97 95 91 93 97 98 98 100 101 100 101 102 101 100 101 101 97 93 94 96 95 93 88 81 77 76 77 81 86 88 92 98 103 102 97 95 96 93 91
66 65 64 63 64 65 65 65 64 63 63 63 62 62 60 57 56 55 54 54 53 53 53 54 53 53 53 53 53 52 52 52 46 46 63 78 79 77 80 83 88 92 92 92 94 94 93 90 86 85 91 97 99 98 92 85 89 98 102 102 103 100 95 93 94 95 96 97 93 87 81 73 68 68 70 71 73 77 83 89 94 99 101 98 96
70 69 68 69 69 68 66 65 63 62 61 61 63 65 64 61 59 57 55 55 55 56 57 57 57 58 57 57 58 56 55 55 50 51 67 81 82 81 85 88 91 95 97 96 97 97 94 92 89 87 91 97 98 95 86 73 69 78 91 98 98 94 91 94 94 92 94 98 98 96 95 91 86 83 80 76 71 66 64 66 71 81 91 97 99
73 72 71 71 70 68 66 64 63 62 61 60 61 65 68 67 66 63 61 61 61 62 62 61 62 63 62 61 62 60 60 62 60 59 69 82 86 86 90 94 96 98 100 100 98 95 91 88 87 85 90 96 97 98 96 80 62 61 73 85 91 89 88 93 97 97 97 99 101 102 102 101 99 95 92 88 82 74 68 64 62 66 73 80 86
75 74 74 74 72 71 70 67 65 63 62 62 61 63 66 68 68 68 67 67 66 65 64 64 65 67 66 65 65 64 63 66 67 64 65 75 87 91 93 96 99 100 101 102 100 97 93 89 86 86 91 98 100 100 93 77 65 67 75 81 84 86 88 93 99 101 100 100 102 103 103 102 102 101 98 93 86 77 70 64 61 62 66 69 73
79 78 78 77 76 76 74 72 69 65 64 65 64 64 66 66 66 67 67 68 70 70 69 69 71 73 72 69 67 65 63 62 62 60 59 66 81 92 96 98 100 100 101 101 100 99 97 93 90 90 92 91 88 83 77 72 74 82 86 87 89 92 95 98 99 100 101 101 101 103 102 100 100 100 98 93 87 79 73 67 63 62 65 68 70
83 81 81 80 81 82 80 76 75 71 69 70 70 70 70 68 68 69 71 74 77 78 77 77 78 79 80 78 73 68 65 64 64 63 64 66 74 86 94 97 99 101 102 103 103 103 103 102 100 98 95 92 88 86 85 87 89 90 89 92 96 97 99 100 99 99 102 101 99 99 100 100 100 98 95 93 92 90 86 83 78 74 73 76 79
86 82 79 78 78 80 82 81 81 79 76 76 76 76 78 78 76 75 77 80 83 84 83 83 85 86 86 85 81 74 71 70 68 67 69 69 69 74 80 83 84 85 85 85 84 84 86 88 87 81 77 77 77 78 81 83 82 80 78 78 82 85 87 89 92 96 100 100 98 96 94 93 95 97 97 98 99 99 97 94 91 87 83 84 89
81 74 71 73 74 77 81 82 83 81 78 77 76 77 80 83 84 83 83 83 85 87 87 86 87 90 90 86 83 80 76 74 72 70 70 69 67 67 68 68 67 66 64 62 59 60 63 66 66 62 61 63 65 66 72 77 77 77 75 73 73 76 78 80 84 90 94 96 96 96 93 91 91 93 97 100 101 101 100 98 98 96 90 88 95
68 62 68 78 81 81 84 85 85 84 81 79 79 80 80 82 84 85 85 85 85 85 87 88 87 87 87 85 83 82 79 75 71 68 65 63 63 63 64 65 65 65 65 65 66 68 70 71 73 73 74 76 78 77 78 78 77 76 74 70 69 70 74 81 88 91 92 93 95 95 95 95 94 93 94 98 101 101 100 99 101 101 97 95 101
52 53 67 82 86 85 86 85 82 78 73 69 69 74 78 80 83 82 81 85 90 90 90 90 89 88 88 87 86 87 85 77 70 69 73 77 80 81 81 81 80 79 79 81 81 81 83 84 87 88 88 89 92 92 90 88 85 82 77 71 67 65 69 79 86 88 88 89 92 94 94 95 95 94 94 97 99 100 101 101 102 101 101 102 103
41 43 52 62 67 68 69 68 66 64 62 61 61 61 60 64 76 87 89 88 91 95 97 98 97 97 97 97 96 95 93 87 84 89 95 96 96 97 97 97 97 96 96 96 94 94 96 99 100 100 99 100 102 101 100 98 97 94 89 83 79 78 78 81 84 85 85 87 90 91 91 92 94 94 96 97 97 97 100 103 103 102 103 105 105
42 41 43 45 47 50 53 55 57 57 58 66 74 74 65 56 59 72 79 77 77 84 92 97 99 98 98 99 100 100 100 98 97 99 98 95 95 99 99 99 101 101 100 100 101 101 102 102 103 102 102 103 104 103 101 100 100 99 97 94 92 91 90 89 87 86 87 89 90 90 91 92 92 91 93 95 95 95 97 101 102 103 103 104 104
50 48 47 46 46 49 52 55 58 57 57 64 75 83 83 74 61 54 58 71 84 93 95 96 98 99 99 99 100 102 102 101 100 100 98 95 97 100 101 101 101 100 99 100 103 103 101 100 101 101 101 101 102 101 101 102 102 101 100 99 98 96 95 94 92 91 91 91 91 91 90 90 90 90 89 91 93 95 96 100 102 102 102 103 104
57 53 51 50 50 53 59 65 68 67 66 70 75 78 83 86 80 68 59 62 73 83 88 92 94 94 93 95 99 102 103 101 101 101 98 94 94 97 100 101 100 100 101 102 102 102 101 100 100 100 99 99 100 100 101 102 102 102 101 100 100 100 99 99 99 98 98 98 96 95 93 91 89 89 88 88 91 94 96 100 103 103 103 104 104
57 54 52 54 56 60 68 78 83 82 80 81 83 83 82 84 87 87 82 74 70 69 70 74 78 79 80 83 91 98 102 103 102 100 98 98 98 99 101 101 100 98 98 99 101 101 101 100 100 98 98 98 99 99 100 100 98 98 98 98 99 98 97 97 98 98 99 99 99 99 99 97 95 94 92 90 90 92 94 97 101 103 104 104 102
55 53 52 58 64 66 71 80 86 88 88 86 83 82 83 84 86 89 91 92 91 85 76 70 73 78 82 84 87 93 97 99 99 99 100 101 101 101 101 100 96 92 90 91 96 100 100 100 100 98 97 96 94 93 94 93 92 93 94 95 96 96 95 95 95 94 94 96 97 97 97 98 98 99 99 97 95 95 95 95 97 99 99 99 100
57 57 56 61 67 70 73 77 81 81 81 79 76 75 79 86 91 92 90 91 94 94 89 83 80 82 84 86 88 90 92 94 97 100 102 103 103 101 98 93 87 85 84 84 88 93 96 96 95 94 94 92 89 88 88 88 89 89 90 90 91 91 91 90 92 95 97 99 99 98 97 97 96 95 98 100 99 99 98 97 96 97 96 95 97
62 63 61 63 68 74 76 76 78 79 78 78 80 81 84 89 93 95 95 96 96 97 97 94 92 91 89 87 88 89 90 93 97 100 101 100 96 92 88 83 83 84 84 83 83 86 89 90 91 91 91 89 88 88 87 87 87 86 86 88 89 88 88 89 92 95 95 95 97 99 99 100 100 99 99 100 100 100 101 100 99 100 99 97 97
66 66 65 66 70 75 77 76 78 81 83 84 87 89 91 93 95 96 98 99 99 100 100 99 98 99 96 90 89 91 92 93 94 94 93 90 88 87 87 86 86 88 88 88 88 89 90 91 91 91 91 90 90 90 88 86 86 85 85 86 87 88 89 89 88 85 82 83 89 94 97 99 100 100 101 101 101 101 101 100 100 101 101 100 100
67 65 66 69 72 74 78 82 84 86 89 91 92 93 95 96 98 98 99 100 100 101 101 100 100 100 98 95 94 95 96 96 96 94 93 93 92 92 92 91 91 91 92 93 94 95 95 93 90 88 88 88 88 87 87 85 85 84 83 83 85 87 89 89 86 83 81 83 87 91 94 95 96 96 97 97 96 96 96 96 96 97 98 99 100
69 68 71 76 80 82 85 89 91 93 95 95 95 97 99 100 100 100 101 102 103 102 101 102 101 98 96 96 98 99 100 102 102 101 101 101 100 99 99 98 97 95 94 94 95 94 92 89 87 86 86 86 86 85 84 83 82 82 81 81 82 84 85 86 86 85 85 86 89 91 92 92 92 92 88 83 81 85 91 94 94 94 95 96 96
73 76 78 82 87 91 93 95 96 97 99 99 99 101 101 101 102 102 102 103 104 103 102 102 101 98 95 96 99 100 101 101 102 101 101 100 100 99 98 96 93 92 92 92 91 89 88 88 88 87 86 85 84 82 81 79 79 80 81 82 83 84 83 83 84 83 81 82 85 88 90 91 89 86 82 78 81 88 93 95 95 94 95 96 96
83 85 86 89 93 97 100 101 101 101 101 101 102 102 103 102 103 103 104 104 104 103 103 103 101 98 95 95 98 100 99 98 98 97 95 94 94 93 92 91 90 91 91 90 89 89 89 88 86 85 84 82 81 80 80 80 81 82 84 85 87 88 87 86 85 82 78 76 79 86 92 94 93 90 88 90 93 94 93 92 93 93 94 95 95
93 93 94 96 99 102 105 106 105 104 104 104 103 102 103 103 104 104 104 104 104 103 103 103 102 100 98 97 99 100 99 97 96 95 94 94 94 93 92 92 90 89 89 89 89 88 86 84 82 81 80 79 80 80 81 82 83 84 86 87 87 87 87 86 85 84 81 80 81 86 92 96 97 97 96 94 93 92 91 91 90 90 91 92 93
97 98 100 101 103 105 106 105 105 104 103 103 103 103 102 102 102 103 103 104 104 103 103 103 102 103 103 101 100 99 97 97 96 96 96 96 96 95 93 90 88 88 88 88 86 83 81 80 80 79 78 79 81 83 84 85 85 85 83 81 82 84 83 83 85 88 90 88 83 84 93 99 98 94 93 95 94 92 90 87 86 87 89 91 92
99 101 102 103 104 105 104 101 101 103 103 103 103 103 102 101 102 102 103 103 104 104 104 103 103 102 102 101 99 98 99 99 98 97 96 96 95 93 90 87 87 88 86 84 82 80 79 79 79 79 80 81 82 84 85 86 86 84 76 71 74 81 84 86 90 94 95 91 85 85 94 98 92 86 89 94 92 86 79 74 76 84 93 95 95
99 102 104 105 105 106 104 101 101 102 104 104 103 102 102 102 101 101 102 103 103 103 103 102 102 101 100 99 99 98 98 97 97 96 96 94 92 90 88 87 86 86 84 83 82 80 80 81 80 79 77 75 74 77 78 80 84 84 74 66 71 83 89 94 99 101 98 94 92 92 96 97 93 89 90 89 85 81 78 75 76 84 93 98 97
101 103 105 106 106 106 103 101 102 103 103 102 101 101 102 102 101 101 102 101 101 101 101 100 100 100 99 99 99 97 96 96 96 95 95 93 90 89 87 85 84 83 83 83 84 83 82 78 73 69 68 68 70 74 75 77 82 83 75 71 81 93 97 98 102 102 97 95 95 96 97 98 98 97 94 92 91 91 90 89 89 91 95 99 99
101 102 103 104 105 104 101 100 101 102 102 102 102 101 102 103 102 102 102 101 99 100 99 99 99 100 99 99 98 96 95 95 94 93 92 91 89 87 85 83 82 83 84 85 86 83 76 69 66 68 72 77 84 88 88 88 90 89 83 84 94 101 101 99 98 95 93 94 96 98 99 99 99 97 94 90 89 90 91 93 95 97 99 99 97
99 99 101 103 102 101 100 100 101 102 104 105 105 104 104 104 103 101 101 100 99 99 99 99 99 98 97 97 97 96 95 94 92 92 92 90 87 86 84 83 84 85 87 87 83 75 67 67 72 77 81 86 93 98 98 97 97 97 96 98 101 103 103 104 101 98 97 98 98 99 100 100 98 94 86 78 76 83 93 99 99 100 101 98 93
94 95 99 102 102 101 101 103 105 106 107 107 106 105 104 104 103 101 101 101 101 100 98 98 98 97 96 97 96 95 94 94 94 93 91 88 86 85 84 85 86 88 88 85 77 69 67 75 82 84 84 87 92 96 100 101 99 97 98 101 101 99 98 99 98 98 101 103 102 100 100 100 96 89 80 74 75 85 97 103 101 99 100 98 94
90 95 100 103 103 104 106 107 107 106 105 105 105 104 104 104 104 103 103 103 102 100 99 98 98 97 96 94 92 93 95 95 94 92 89 86 85 85 85 86 88 89 87 81 73 69 74 82 86 85 86 89 91 95 98 98 93 89 89 90 88 83 80 79 79 81 87 94 98 100 102 101 98 90 82 81 84 89 95 100 102 100 99 98 97
Wind_Speed
25 26 27 28 30 32 33 35 36 38 39 39 40 40 41 40 40 40 39 38 39 39 39 40 42 43 44 45 44 44 43 43 43 42 42 42 40 39 38 37 37 36 35 34 33 33 34 34 33 33 31 30 30 29 28 27 26 27 27 28 28 27 26 23 17 16 19 18 17 19 21 22 24 25 26 27 28 28 29 28 28 28 28 29 30
22 23 23 24 26 28 30 32 33 34 35 36 37 38 38 38 38 38 37 38 38 38 39 39 40 42 43 43 43 43 43 43 43 42 42 42 40 39 37 36 36 35 34 34 33 33 33 33 33 33 32 32 31 30 28 27 27 28 28 28 29 28 27 26 22 18 19 19 18 20 21 22 23 24 24 26 27 27 29 29 29 29 29 30 30
20 19 19 21 23 25 27 29 29 31 32 33 35 35 36 36 35 36 36 36 36 37 37 38 38 40 40 41 42 42 42 42 42 42 42 42 40 38 37 37 36 35 35 35 34 33 33 33 33 33 32 32 32 31 30 29 29 30 30 30 29 29 28 28 25 21 21 21 19 19 21 22 24 24 23 26 26 27 28 30 29 29 29 29 29
17 17 18 20 22 23 25 26 26 27 28 30 31 31 31 31 32 33 33 33 33 34 34 35 36 38 39 39 40 40 41 40 40 41 41 41 40 38 37 37 37 36 36 36 34 33 33 33 33 33 33 33 33 32 31 31 31 31 31 31 30 30 29 27 27 25 23 22 20 19 20 22 24 24 23 25 26 27 29 30 29 28 28 28 28
13 15 17 19 20 21 22 23 23 23 24 26 27 27 26 27 27 28 29 29 30 30 31 32 34 36 37 38 38 39 39 39 39 39 39 39 38 37 36 37 37 37 36 35 34 34 35 35 34 33 33 33 33 33 33 33 33 32 32 32 31 30 29 27 27 27 25 23 22 20 20 22 25 25 23 23 26 27 28 29 29 29 29 29 30
11 14 15 15 15 16 16 17 17 18 19 20 21 22 22 22 23 24 25 26 27 28 29 30 32 34 36 36 36 36 36 37 37 37 37 37 36 36 37 37 37 36 35 34 34 35 35 35 35 34 34 35 35 35 35 34 34 33 33 32 31 30 29 27 26 26 26 26 25 23 22 23 25 27 25 23 26 28 27 27 28 28 28 28 29
11 12 11 11 11 11 10 10 10 11 13 14 16 17 18 19 20 21 22 23 24 26 27 29 30 32 33 33 33 34 34 34 35 35 35 36 36 36 36 37 36 35 34 33 33 34 34 35 35 35 36 36 37 36 36 35 35 35 35 34 32 31 30 29 27 26 26 26 25 24 24 24 25 27 25 22 24 27 26 24 25 26 25 26 28
10 9 9 8 7 8 7 7 8 8 9 10 12 13 14 16 17 18 19 21 23 24 25 27 28 29 29 30 31 32 32 33 34 34 35 35 36 37 37 36 35 33 32 32 32 32 33 34 35 36 36 37 38 37 37 36 35 36 35 34 33 32 31 30 29 28 27 26 26 24 23 23 24 26 26 22 22 25 25 23 25 26 25 26 27
7 7 6 6 6 6 6 6 6 6 7 8 9 11 12 13 15 16 18 20 21 22 23 25 26 27 28 29 29 30 31 32 33 34 34 35 36 36 36 34 33 31 30 30 31 32 33 34 35 36 37 37 37 37 36 36 36 36 35 34 33 32 31 30 29 28 26 25 25 24 22 22 24 25 26 25 25 26 26 24 25 27 26 27 29
4 4 4 3 4 5 5 6 6 5 5 6 7 8 10 12 13 15 16 18 20 21 22 24 25 26 27 28 28 29 30 31 32 33 34 35 35 34 33 32 31 30 29 29 30 32 33 34 35 35 36 36 36 35 35 35 35 35 34 34 34 33 31 30 29 29 27 24 24 24 21 22 26 27 27 27 27 26 25 24 25 26 25 25 27
2 1 2 2 3 5 5 6 6 6 7 7 8 9 10 11 12 14 15 17 18 20 21 22 24 25 25 26 27 27 29 29 31 31 31 31 32 32 31 30 30 30 30 30 31 32 33 34 35 35 35 35 34 34 33 33 34 34 34 34 34 34 33 32 31 30 28 26 26 25 22 25 29 29 28 29 27 24 24 24 24 24 22 19 19
1 0 1 2 3 3 4 4 5 6 7 8 9 10 11 12 13 14 15 16 17 18 19 20 21 22 23 24 25 26 27 28 29 28 26 25 27 30 31 31 30 31 32 32 33 33 33 33 34 35 35 34 33 33 33 33 33 33 34 34 35 35 35 34 34 33 31 29 28 27 27 29 30 29 29 28 26 24 25 25 25 24 23 20 18
2 1 2 1 1 1 2 3 4 6 7 8 10 10 10 11 12 13 14 15 16 16 17 18 19 20 21 22 24 25 26 27 26 24 23 23 24 27 31 32 33 33 34 34 33 33 33 33 33 34 33 32 32 32 32 33 33 33 32 32 34 35 35 34 34 34 35 35 32 31 33 33 30 31 31 29 26 24 24 25 26 25 24 23 23
2 3 3 2 1 1 2 4 5 6 7 8 9 9 10 11 11 12 13 13 14 15 16 17 17 19 20 22 23 24 24 25 23 21 21 23 23 25 29 32 34 35 35 34 34 33 33 33 33 33 32 31 32 32 32 33 33 33 32 32 32 34 34 33 33 33 35 36 35 36 38 36 34 35 34 30 28 27 27 27 28 27 28 29 29
1 2 2 0 2 3 4 5 5 7 7 8 9 9 10 10 11 11 12 13 14 15 15 16 17 18 19 20 21 22 22 23 21 19 20 21 22 23 25 26 29 32 33 33 33 33 33 33 33 33 33 33 34 34 35 36 35 35 35 35 36 36 36 36 37 38 39 38 36 36 37 38 38 38 37 35 34 34 33 33 32 30 29 30 29
1 1 1 2 3 4 4 4 5 6 7 8 8 9 9 10 11 11 12 12 13 14 15 16 17 17 18 19 19 20 20 21 20 19 19 20 21 22 22 21 21 25 28 30 31 32 32 32 33 33 33 34 36 35 35 34 35 35 35 36 37 38 39 40 40 41 41 42 41 40 40 40 40 38 39 39 39 39 39 36 33 31 28 25 24
2 1 1 1 2 3 4 4 5 6 7 7 8 9 9 10 10 11 12 12 13 14 15 15 16 16 17 17 18 19 19 19 19 18 18 20 21 23 25 23 20 20 22 25 28 30 31 32 32 32 33 34 35 33 30 29 31 34 34 36 37 37 38 41 41 40 38 39 41 41 41 42 41 40 40 40 40 40 38 33 31 31 27 19 18
2 1 1 0 2 4 4 4 4 5 7 7 7 8 8 9 10 11 12 13 13 14 14 14 14 15 15 16 16 17 18 18 19 19 19 20 22 24 26 26 24 22 20 21 23 25 27 28 28 29 32 33 33 31 28 28 30 31 31 33 34 35 36 39 41 40 39 39 39 39 38 39 39 40 40 39 39 38 36 34 34 33 27 20 19
4 3 2 2 3 4 4 3 3 5 6 6 7 7 8 8 9 10 11 12 12 12 13 13 13 13 14 14 15 16 18 18 19 20 20 20 21 24 25 25 24 24 23 23 23 24 25 26 27 28 30 32 32 30 30 30 32 32 31 31 31 33 36 39 39 38 39 40 40 41 40 38 37 37 38 38 37 36 34 33 32 31 28 25 23
4 4 3 3 3 3 3 3 3 4 5 6 6 7 7 8 9 10 11 12 12 12 12 13 13 13 13 14 15 17 18 19 20 20 20 19 20 21 23 24 23 23 24 25 25 25 26 29 31 31 31 31 31 32 32 33 35 35 34 32 30 31 35 37 37 37 38 39 40 42 42 41 40 40 39 39 38 37 36 34 30 28 27 25 24
3 3 2 2 2 2 3 4 4 4 5 5 6 6 7 8 9 10 11 11 12 11 11 12 12 13 14 15 16 18 19 20 21 21 19 19 19 20 21 23 22 22 23 24 24 25 26 28 31 32 31 30 31 32 34 35 36 36 34 33 33 35 36 36 36 36 37 37 38 39 39 39 40 41 41 40 40 40 40 39 36 33 30 27 25
3 3 2 2 3 3 4 5 5 5 6 6 6 7 7 8 10 10 11 11 11 11 12 12 13 14 15 16 18 19 20 20 21 22 22 21 20 20 22 22 22 22 23 23 24 26 27 29 31 32 31 29 30 32 33 34 35 36 34 32 32 34 35 35 34 35 36 37 36 35 35 35 36 38 39 40 41 41 40 40 40 39 37 35 33
5 4 4 5 5 6 6 6 6 6 6 6 7 7 8 9 10 10 11 11 12 13 14 14 15 16 18 19 20 21 21 22 23 24 25 24 22 22 22 23 22 22 23 23 24 26 28 30 32 31 29 28 30 32 34 35 36 36 35 33 32 31 31 29 26 25 28 31 32 31 31 32 33 34 36 39 41 42 41 40 40 41 40 39 38
7 6 6 6 7 7 7 7 7 7 6 6 6 7 7 9 10 11 11 12 12 14 15 15 16 17 19 21 22 22 22 22 22 23 24 24 23 22 22 22 21 22 23 23 22 23 25 28 30 29 29 30 32 33 33 34 34 33 31 29 28 26 23 21 19 18 18 20 22 24 26 29 31 32 35 38 40 41 41 40 40 40 41 41 39
8 8 8 7 7 8 8 8 8 7 6 6 6 7 7 8 10 11 12 12 13 14 16 16 17 18 19 20 22 23 22 22 22 21 21 20 20 21 21 21 20 21 21 22 21 20 20 22 25 26 27 29 30 30 30 30 29 30 30 29 27 25 23 22 22 21 20 19 19 19 21 24 28 31 34 36 36 36 37 38 38 39 40 39 38
10 9 9 8 7 7 8 8 7 7 7 6 7 7 8 9 11 11 12 13 14 15 16 17 18 18 19 20 22 23 23 23 23 22 21 20 21 22 21 21 21 21 22 23 24 24 23 24 26 27 28 28 29 29 30 29 29 30 31 32 31 30 28 26 25 24 24 24 24 24 24 24 25 27 29 30 32 32 33 34 36 37 37 37 35
10 10 9 7 7 7 7 7 7 7 8 8 8 9 9 10 11 12 13 14 14 16 17 17 18 18 18 20 22 22 23 24 24 23 22 22 23 24 23 24 24 24 25 25 25 25 24 24 26 27 27 28 29 30 29 29 28 29 30 31 31 30 29 28 27 26 26 27 27 28 28 27 26 25 26 27 30 31 32 33 33 34 36 36 33
10 9 8 7 7 7 6 6 7 7 8 9 10 11 11 11 12 13 14 14 15 17 17 18 19 19 19 20 21 21 23 25 25 25 24 24 24 24 24 24 24 25 25 26 25 25 26 26 26 27 28 28 28 29 30 30 30 30 31 31 32 32 31 29 27 27 27 28 29 29 28 27 27 27 27 27 29 30 31 33 33 32 33 33 29
10 8 7 7 7 6 6 7 8 9 11 12 12 12 12 12 13 14 15 14 15 17 18 19 21 21 20 21 21 20 22 25 26 24 23 22 22 22 24 25 26 27 27 27 27 27 27 27 27 27 27 28 27 28 29 30 31 31 32 32 33 33 33 31 29 29 29 29 28 28 28 27 27 27 27 27 28 28 30 32 33 32 31 30 28
10 9 8 8 8 9 9 10 10 11 12 12 13 14 14 12 12 13 15 15 14 15 17 19 20 20 21 22 22 22 24 26 26 24 23 23 23 24 25 25 26 28 28 28 28 28 25 24 24 25 26 26 25 26 27 28 28 29 30 31 32 32 32 32 31 30 30 29 29 28 27 27 26 26 25 26 27 27 28 30 32 32 29 27 26
12 11 11 11 10 11 11 12 12 13 12 12 12 14 16 17 15 13 13 14 14 14 15 16 17 17 18 20 20 21 21 22 22 23 24 24 22 19 18 19 20 21 22 23 23 22 21 20 20 21 23 24 24 25 26 26 26 27 28 29 29 29 30 31 31 31 30 29 28 28 27 27 26 26 26 26 26 26 27 28 29 30 29 27 25
12 13 13 13 12 12 12 12 13 13 13 12 12 13 16 19 20 20 16 13 12 13 15 16 16 16 16 18 19 19 18 17 17 19 21 22 20 17 16 18 20 21 21 20 19 18 17 17 16 16 17 18 19 21 22 23 23 24 25 25 25 26 27 28 28 29 30 29 28 28 28 27 27 27 26 26 25 25 25 25 26 26 27 26 25
13 14 14 14 14 14 13 13 13 13 13 13 14 15 15 16 18 21 23 21 18 16 15 15 15 16 17 18 19 20 20 19 18 18 19 21 21 20 19 18 18 18 17 16 16 15 15 15 15 15 15 15 15 15 15 15 15 15 15 16 16 16 17 17 18 19 21 22 24 25 26 27 28 28 27 27 26 24 24 25 25 25 24 22 22
14 14 14 15 15 15 14 14 15 15 15 14 15 16 17 17 16 18 21 22 23 23 22 21 19 19 20 20 20 20 20 20 20 20 20 20 20 20 18 16 15 14 14 14 14 14 14 14 14 14 15 14 14 14 13 13 13 13 14 14 14 14 15 16 16 16 16 17 18 18 18 19 20 22 24 25 26 25 24 23 23 23 22 20 20
14 14 14 13 14 14 14 14 15 16 16 17 18 19 19 19 18 18 18 18 19 22 26 27 25 23 23 23 22 21 20 20 21 21 20 19 18 15 14 13 15 16 18 17 16 15 14 15 15 15 15 15 14 14 14 14 14 14 14 14 15 15 15 16 16 17 17 18 18 18 19 18 17 17 17 18 20 22 24 24 24 24 23 22 21
15 16 15 13 13 13 14 15 16 17 18 20 20 20 20 19 19 20 20 19 19 20 24 27 28 27 26 25 23 21 20 19 20 20 19 17 15 13 13 14 17 19 21 21 20 17 14 14 14 14 14 14 14 14 14 15 15 15 14 14 15 15 16 16 16 16 16 16 16 17 18 18 19 18 18 17 16 15 16 19 22 24 25 25 23
16 16 16 14 14 14 15 17 17 18 20 20 20 20 20 20 20 20 20 20 20 21 22 24 26 26 27 27 24 22 21 20 19 19 18 17 16 17 17 16 16 17 19 21 21 20 18 16 15 14 14 14 14 14 14 14 15 15 15 15 15 15 15 15 15 15 15 15 15 15 15 15 15 14 14 14 15 14 13 11 11 14 18 20 21
16 16 15 15 15 16 17 19 20 20 21 21 21 20 20 20 20 20 20 20 20 20 21 23 22 22 25 26 25 24 22 21 20 19 19 19 19 18 17 15 14 15 17 19 20 20 20 19 17 15 14 14 13 13 13 13 14 14 15 15 15 15 14 14 14 15 16 17 16 15 14 13 12 11 10 9 9 10 10 9 9 8 8 10 11
16 16 16 16 17 17 18 19 20 21 21 21 21 20 20 20 20 20 20 20 20 21 21 21 21 22 23 25 25 23 22 20 20 20 21 20 18 16 15 14 14 14 16 17 17 16 16 16 15 15 15 14 14 13 13 13 13 13 13 14 14 14 13 13 13 14 15 16 16 15 14 13 12 12 11 11 11 11 11 11 10 10 9 9 9
16 17 18 19 19 19 19 19 20 20 20 20 21 20 20 20 20 20 20 20 20 20 20 20 21 23 24 24 23 21 19 18 18 17 17 17 16 14 13 13 13 14 15 15 15 14 14 14 14 15 14 14 13 13 13 12 13 13 13 13 13 13 13 12 12 12 12 14 15 15 14 14 13 13 13 13 13 12 12 12 12 11 11 11 11
17 19 20 21 20 21 21 21 20 20 19 20 20 20 20 21 21 21 20 20 20 20 20 20 21 23 24 23 21 19 18 17 16 15 15 15 15 15 14 14 14 14 14 14 14 13 13 13 12 12 12 12 12 12 12 13 13 12 12 12 12 12 12 12 12 12 13 13 14 15 15 15 14 13 13 12 11 10 10 10 10 10 10 11 11
18 20 21 21 22 22 21 21 20 20 20 20 20 21 21 21 21 21 21 20 20 20 20 20 21 23 24 23 20 17 17 17 17 17 17 17 17 16 15 14 13 12 12 13 12 11 10 10 9 9 10 10 11 11 12 11 11 10 9 9 9 9 10 10 10 11 13 14 15 15 14 13 12 11 10 9 9 9 9 10 10 10 10 10 9
19 20 21 22 22 22 21 20 20 20 20 21 21 21 21 21 21 21 21 20 20 20 20 21 22 23 23 21 19 16 16 17 17 17 17 16 15 14 13 12 12 12 12 11 10 8 8 8 8 8 9 9 9 10 10 9 9 8 8 9 9 10 11 12 12 12 13 14 14 14 13 12 11 10 9 9 9 9 10 10 11 11 11 11 11
19 20 21 23 23 22 21 20 19 20 20 21 21 22 21 21 21 21 21 20 20 20 20 21 21 21 20 18 17 16 17 17 16 16 15 15 13 12 12 12 12 11 10 9 8 7 7 8 8 8 9 8 8 8 9 9 10 10 10 11 11 12 13 13 13 13 13 13 13 13 13 12 11 10 10 10 10 10 10 11 13 14 14 13 13
20 22 23 24 24 23 21 20 19 20 20 20 21 21 20 20 20 20 20 20 20 20 20 20 20 19 18 17 17 17 17 16 16 15 14 13 12 12 11 10 10 9 8 7 7 7 8 9 9 9 9 9 9 9 10 10 11 12 12 12 13 14 14 14 13 12 12 11 10 10 10 11 11 11 12 11 10 10 10 11 12 14 14 14 14
22 23 23 23 22 21 20 20 20 19 19 19 20 20 20 19 19 19 19 19 19 19 19 19 18 18 18 17 17 16 16 16 15 14 13 12 11 10 9 8 8 7 7 7 7 8 8 8 9 10 11 12 13 14 14 13 12 12 12 13 13 13 13 12 11 10 9 9 8 8 9 10 11 12 12 11 10 10 10 11 12 14 15 14 14
24 23 21 20 19 19 19 19 19 19 19 19 19 19 19 19 19 19 19 19 19 19 19 19 18 18 17 16 15 15 15 15 14 13 11 10 9 8 7 7 7 6 7 7 7 8 8 10 11 13 14 14 15 15 15 14 13 12 12 12 11 10 10 9 8 8 7 7 8 8 9 10 10 10 9 9 9 9 10 12 13 14 14 13 13
24 22 20 18 17 17 19 19 18 19 19 19 19 19 19 19 19 19 19 19 19 18 19 18 17 16 15 14 14 14 13 13 12 11 10 9 8 7 7 7 6 7 7 7 8 9 11 12 13 12 11 11 12 13 13 12 11 10 9 9 8 7 8 8 8 8 7 6 7 8 8 9 8 7 7 8 9 10 11 12 13 13 13 12 11
22 20 18 17 16 17 18 19 19 19 20 19 19 19 19 19 19 19 19 19 18 18 17 17 16 15 15 14 14 13 12 12 12 11 9 7 6 6 7 7 6 7 7 8 9 11 12 12 10 9 9 10 10 10 10 10 9 8 7 7 7 7 7 7 8 8 7 7 7 8 9 10 9 9 9 9 9 10 11 11 11 12 12 11 11
20 18 16 16 17 18 19 19 19 19 19 19 19 20 20 19 20 19 18 18 18 17 17 16 15 15 14 14 13 13 13 11 10 8 6 6 6 7 7 7 7 7 7 9 11 12 11 9 8 9 9 9 9 8 8 7 6 5 5 6 6 6 6 7 7 8 7 8 9 9 10 10 10 10 9 9 9 10 11 11 11 11 11 11 13
19 17 15 16 17 18 19 20 19 19 19 19 19 20 20 19 19 19 18 18 18 17 17 16 15 15 14 14 13 13 11 9 7 6 6 7 7 7 6 6 7 7 9 10 11 10 9 8 9 9 9 8 8 7 6 5 5 5 6 6 6 7 7 8 8 8 7 8 9 10 10 10 10 10 9 8 9 10 11 11 11 12 12 13 14
Wind_Direction
256 258 260 260 258 258 257 256 254 253 250 247 245 244 244 244 243 243 241 239 237 234 231 226 222 220 218 217 216 216 216 215 215 214 214 215 216 216 217 216 216 218 217 217 216 216 216 217 220 222 223 225 227 229 231 233 235 234 234 234 234 235 235 233 240 257 258 254 255 256 258 260 262 263 264 266 266 266 270 273 276 279 281 282 284
260 263 265 265 265 264 264 262 259 257 253 250 247 246 246 245 245 244 241 239 238 235 232 228 224 220 217 216 216 215 215 215 214 213 213 214 215 216 216 215 216 217 216 215 215 215 216 217 219 221 223 226 228 229 232 233 233 232 231 231 232 233 233 233 239 253 261 258 255 259 262 262 264 265 265 268 270 270 271 272 274 276 278 279 281
262 265 266 268 270 271 269 267 264 260 257 253 251 249 248 248 247 245 242 240 237 235 233 229 224 220 217 215 215 214 214 214 213 213 213 214 214 215 216 215 215 216 216 216 216 215 215 217 219 220 221 223 226 229 232 233 233 232 232 231 232 234 233 234 238 246 259 262 258 258 262 262 263 264 264 266 269 271 272 272 273 273 274 276 277
261 264 268 272 274 272 271 270 268 264 260 256 253 250 250 249 248 245 243 240 236 234 232 228 224 220 216 214 214 213 213 213 213 213 214 215 215 215 216 216 217 218 218 218 217 216 216 217 217 218 218 220 224 227 229 231 232 231 232 233 233 236 236 235 238 243 253 262 261 258 260 263 264 265 266 267 268 269 270 272 272 272 272 273 272
263 269 273 275 275 274 274 272 270 266 261 256 252 250 250 249 247 244 240 237 235 233 230 226 222 219 216 215 214 213 213 213 213 214 215 216 216 216 217 217 219 220 220 220 219 218 217 217 217 217 217 218 221 224 227 228 230 230 231 233 233 235 237 236 238 242 248 257 261 261 260 262 265 266 264 267 270 270 270 270 270 270 272 272 271
271 272 273 274 276 277 277 275 272 267 261 254 250 249 249 247 245 241 237 235 233 231 227 224 221 219 217 216 214 214 214 214 214 215 216 216 217 218 218 219 220 221 221 221 220 219 218 218 218 218 218 220 222 224 226 227 228 229 229 231 232 233 234 235 236 240 245 252 258 261 260 260 264 267 265 264 267 269 270 271 271 271 271 270 269
273 271 272 275 280 281 280 278 275 269 262 256 251 248 247 246 243 240 237 235 232 229 225 223 221 219 218 216 215 215 215 215 216 217 217 217 217 218 219 220 221 222 222 222 221 220 219 219 220 221 222 225 226 227 227 227 229 230 231 232 232 233 234 235 236 239 244 250 255 257 258 258 259 264 266 264 264 265 266 269 271 270 267 266 267
273 273 277 282 283 284 284 281 278 274 266 257 251 247 246 245 243 240 237 234 232 230 227 224 222 220 219 219 219 218 218 217 218 218 218 218 219 220 221 221 222 222 222 222 220 220 221 222 224 226 228 230 231 231 231 231 231 231 233 234 234 235 235 236 237 239 242 246 251 253 254 256 256 259 263 262 260 259 259 261 265 268 268 267 268
274 277 281 285 284 282 284 283 279 274 265 256 250 247 246 245 243 240 237 235 234 233 230 228 225 222 221 222 222 221 221 220 220 220 220 220 221 222 222 221 221 221 221 220 220 221 223 225 228 231 233 234 235 235 236 237 236 235 236 235 235 234 234 235 235 236 238 242 247 249 250 252 253 256 258 255 253 256 259 259 261 265 269 270 269
281 286 285 282 280 279 281 280 279 277 272 264 258 253 248 246 243 240 238 237 236 234 232 229 227 225 224 223 223 223 223 224 224 225 225 224 223 222 222 221 220 220 219 219 220 223 226 229 231 233 235 235 236 237 238 240 240 241 242 240 238 235 232 232 232 233 236 239 242 244 245 248 250 250 254 255 254 256 258 257 259 263 266 268 270
310 307 288 282 282 284 287 285 284 286 285 280 273 265 256 250 245 240 237 235 234 233 231 229 228 228 227 226 226 226 227 228 229 228 226 225 224 223 221 220 220 220 221 221 223 226 228 229 231 233 234 234 235 237 240 242 243 245 246 246 244 241 236 234 234 234 235 238 242 241 240 246 250 249 251 255 256 254 254 254 255 258 259 260 266
55 50 272 277 282 286 289 287 286 285 282 277 271 265 258 253 247 242 238 236 234 233 232 231 231 230 230 230 230 230 230 231 231 228 223 221 223 223 222 221 220 221 224 225 227 229 228 229 230 231 232 233 235 238 240 243 246 247 248 248 248 247 244 241 240 238 237 238 241 240 239 244 249 250 249 252 253 253 254 253 252 252 253 253 256
103 143 179 199 218 244 267 273 275 273 269 264 261 258 255 252 248 243 240 236 235 234 232 232 232 231 230 230 230 229 229 230 229 225 222 222 223 224 225 225 226 227 229 230 230 230 230 229 229 229 231 232 236 239 241 244 246 247 249 249 248 247 246 244 244 244 243 241 240 240 243 244 247 250 250 251 251 251 251 250 250 249 250 251 253
128 152 150 154 171 254 283 280 275 268 262 258 257 257 255 252 248 245 241 238 236 234 232 231 229 229 229 228 228 228 229 231 229 224 226 229 230 231 231 230 230 232 234 234 233 232 231 231 231 232 234 237 240 243 245 248 249 249 248 247 246 245 244 244 245 246 246 244 241 242 247 248 248 252 255 252 249 248 248 248 248 248 248 251 255
111 163 151 195 310 318 308 292 276 265 258 256 256 257 256 253 250 248 245 242 241 239 236 234 232 231 231 231 230 230 232 234 232 229 232 235 237 241 243 238 233 233 234 235 234 233 233 234 236 239 242 244 247 249 251 252 252 251 249 247 246 246 245 245 246 248 248 247 245 247 251 253 252 254 257 255 251 250 251 251 252 252 253 255 256
1 238 289 324 320 325 313 290 273 259 253 252 253 254 254 251 250 248 245 242 241 239 238 236 236 234 233 232 231 232 234 234 232 233 238 242 245 249 255 255 245 237 234 234 233 233 235 236 240 244 246 249 252 253 253 252 251 249 248 248 248 248 248 249 250 250 250 250 249 248 250 253 254 253 254 254 253 253 252 251 251 250 251 253 254
358 243 276 302 306 315 301 283 269 253 248 250 252 254 253 250 247 243 240 237 235 236 236 236 236 236 234 232 232 232 234 234 234 237 243 249 253 256 259 262 258 246 237 234 233 234 235 237 239 243 245 249 251 251 250 250 249 246 244 244 246 246 248 251 252 252 252 253 253 251 250 251 252 253 253 252 251 250 245 240 241 242 241 243 247
66 91 72 297 304 311 300 287 270 255 254 257 256 255 253 250 245 240 238 237 235 235 234 233 234 234 234 235 236 238 241 242 245 248 253 256 258 259 260 261 259 252 244 238 234 233 233 234 237 240 243 247 250 252 252 251 249 246 243 242 242 242 246 251 251 251 252 253 256 257 257 256 256 257 257 256 254 249 238 232 235 236 234 234 240
47 29 6 319 306 306 302 293 274 262 263 264 263 262 257 252 246 242 239 237 236 234 231 231 232 234 239 245 248 252 256 258 260 260 261 261 260 260 261 260 256 252 249 246 244 242 241 241 243 245 247 249 250 251 251 250 248 247 247 245 241 240 246 251 250 250 250 250 252 255 258 260 260 259 259 258 258 254 246 240 238 233 231 235 238
10 358 339 325 319 311 314 312 287 274 274 271 271 267 259 253 248 242 239 236 233 232 232 236 241 246 252 257 261 263 265 268 270 269 266 264 262 260 260 259 255 250 248 247 246 247 248 249 249 249 249 251 252 251 252 252 250 248 247 245 243 244 248 251 250 250 250 249 250 252 254 256 258 259 259 259 259 258 256 253 248 237 234 237 237
2 358 341 336 331 315 317 322 313 302 289 280 277 268 257 252 247 243 241 237 235 237 241 247 252 257 261 264 266 269 270 271 274 274 269 264 263 261 260 259 257 253 250 248 246 246 247 248 250 251 250 252 255 256 258 259 258 255 251 247 248 250 251 250 249 251 251 250 251 251 250 251 253 255 257 258 258 259 259 258 257 250 243 239 238
354 350 336 324 320 313 311 311 309 305 296 288 282 271 260 252 246 242 241 240 242 248 253 258 261 263 266 266 267 269 270 270 272 272 270 266 264 264 263 261 260 256 251 247 244 245 247 249 251 253 252 254 257 258 260 262 263 263 261 257 256 257 257 254 250 249 247 247 247 247 247 247 247 248 251 253 255 257 258 259 259 257 253 248 243
345 343 333 323 319 318 314 311 310 305 297 292 285 275 266 258 253 250 249 250 254 258 261 266 268 269 270 270 270 271 271 270 271 272 273 271 268 267 266 265 262 259 254 249 245 245 247 250 253 255 254 255 257 258 260 262 263 264 265 265 265 266 266 264 259 253 248 244 242 242 242 243 243 243 245 247 250 254 256 258 259 259 258 256 252
343 339 332 327 323 320 319 319 319 315 307 300 294 285 275 268 264 264 264 264 264 265 269 272 272 273 275 277 279 280 279 278 277 276 277 276 272 269 268 267 266 264 263 262 257 250 247 248 252 255 255 257 259 261 265 267 266 266 267 270 272 274 275 277 277 275 268 256 247 243 243 243 243 243 244 246 248 251 253 256 258 258 258 259 258
336 332 327 323 320 316 316 318 322 324 320 311 306 302 292 281 275 274 273 272 271 271 275 277 276 275 275 277 282 287 288 287 285 283 282 280 276 272 269 269 270 269 270 271 270 266 260 258 259 261 262 264 266 269 272 273 272 272 273 275 278 281 282 282 281 279 275 268 261 256 251 248 248 249 250 250 249 248 248 250 253 254 256 258 259
327 326 322 317 312 307 306 311 319 324 325 320 313 309 301 290 286 284 280 277 275 275 277 278 278 276 274 275 280 285 288 288 287 286 284 281 278 275 273 273 273 272 272 271 270 270 271 269 269 270 271 272 272 274 276 277 277 276 275 275 277 278 277 276 274 271 267 265 264 262 259 258 256 256 256 254 249 245 244 243 245 247 250 252 253
324 325 325 323 324 320 316 318 321 321 322 320 314 309 302 293 287 285 284 282 279 276 276 276 276 274 275 278 282 285 288 288 286 286 285 282 280 279 277 276 275 274 273 272 271 273 273 271 269 269 270 271 272 274 277 277 277 276 275 275 276 275 274 272 269 266 264 264 264 263 262 262 260 257 255 251 247 245 243 240 238 239 242 244 245
327 329 330 333 335 332 326 323 317 313 312 311 309 307 305 299 290 285 284 284 280 278 277 276 276 277 278 281 284 285 287 287 287 289 288 286 284 283 279 277 276 272 271 271 273 274 274 272 270 269 267 267 268 269 270 270 271 272 273 274 275 275 275 273 269 265 263 262 263 264 263 261 258 256 253 250 246 244 241 238 236 235 235 236 236
334 334 332 332 331 323 316 310 305 306 308 306 303 300 297 295 292 291 293 292 286 283 280 277 280 281 280 280 281 279 280 287 293 295 292 287 282 278 276 274 273 271 272 274 273 270 267 266 265 263 263 262 261 262 263 264 265 266 267 269 271 272 273 271 267 264 263 261 260 261 261 260 258 255 253 250 248 245 240 236 234 235 232 229 230
342 340 334 329 323 317 314 312 310 311 312 310 307 303 299 295 290 287 291 293 288 282 278 277 281 283 278 277 277 273 276 286 294 292 285 282 279 275 274 273 271 270 272 273 268 260 256 256 255 255 255 255 254 255 256 258 259 260 261 263 264 265 266 266 265 264 263 261 259 258 258 258 257 256 253 250 248 246 241 236 233 232 229 225 227
342 341 337 333 327 320 317 315 315 314 311 309 309 307 306 307 304 296 291 290 287 286 285 285 288 289 285 285 288 285 284 289 292 287 284 287 289 287 282 281 279 276 275 275 266 255 248 247 247 246 247 247 246 249 251 252 254 256 258 259 260 259 260 261 261 262 262 260 258 257 255 254 254 253 252 250 249 247 243 238 234 230 227 225 226
336 334 332 330 326 321 317 315 315 314 312 310 310 307 306 308 310 311 310 302 291 289 291 293 296 298 297 298 302 303 302 300 296 293 293 294 296 298 295 290 288 286 285 283 278 268 261 260 259 256 253 250 249 251 251 251 252 253 254 256 258 258 258 259 260 261 259 258 257 255 254 253 252 252 252 250 249 246 242 237 233 228 226 226 226
329 325 325 325 322 319 318 318 318 318 317 315 312 309 305 302 302 308 312 312 306 301 298 298 300 301 303 305 306 307 308 306 304 303 301 296 294 298 302 298 292 290 291 290 287 285 283 282 282 282 280 277 275 273 271 270 271 271 271 272 274 274 274 275 276 274 269 266 263 260 256 253 251 249 249 247 246 245 241 235 231 228 225 225 226
324 321 321 320 317 314 314 315 315 315 314 311 307 305 304 301 299 300 304 309 312 311 310 309 308 307 308 310 310 308 307 307 307 308 305 301 298 300 303 301 296 294 297 300 300 300 300 299 298 296 296 296 296 298 299 300 302 304 304 303 303 303 301 300 301 301 298 296 293 288 283 276 266 257 250 244 241 240 238 234 230 227 224 224 223
325 323 321 318 314 312 311 310 309 308 306 306 305 304 302 302 300 298 296 298 302 303 304 307 309 310 310 310 309 308 305 304 304 304 301 300 303 305 306 307 308 306 303 302 303 302 300 299 298 298 299 301 303 305 307 308 309 310 310 310 309 309 309 308 306 305 305 304 303 302 301 300 298 292 281 265 250 240 234 230 227 225 225 225 224
328 325 323 321 318 314 311 309 307 306 305 307 308 308 306 302 299 296 295 295 293 292 294 300 306 309 309 308 309 310 308 305 303 301 300 301 309 316 319 320 318 313 307 305 306 306 303 300 297 297 299 301 303 306 308 309 310 310 309 310 309 309 310 310 308 309 310 311 310 307 302 297 296 298 300 297 287 271 254 241 232 227 225 224 222
326 324 322 322 320 315 313 311 310 309 309 311 312 312 309 306 301 298 295 293 292 291 292 296 302 306 307 309 311 313 312 309 304 300 299 300 303 306 310 313 312 307 303 303 305 307 306 305 303 303 304 305 306 307 308 308 309 309 309 308 307 307 307 306 305 306 310 313 315 315 312 306 300 294 291 292 294 296 294 285 267 248 237 229 224
322 322 323 322 319 316 314 313 313 312 312 312 314 313 310 307 304 300 296 293 292 292 292 294 297 298 300 305 310 313 313 310 305 300 299 300 299 299 302 304 302 298 296 298 301 301 301 302 303 306 309 310 310 309 309 309 309 308 308 307 306 304 303 301 300 303 306 310 313 313 312 311 310 309 308 306 303 304 307 310 313 310 290 265 248
322 324 325 324 321 318 316 313 312 312 311 311 311 311 308 305 302 299 296 295 294 292 292 294 294 295 297 302 309 312 311 307 302 301 302 302 301 299 299 298 296 295 295 298 300 299 298 300 304 308 310 311 310 310 310 310 310 309 309 308 305 303 301 299 298 301 304 307 309 310 309 307 306 306 310 315 318 319 318 315 314 318 320 314 303
322 324 326 326 324 322 319 315 312 310 309 308 308 307 304 302 300 299 297 295 293 292 293 293 293 296 299 303 308 310 306 301 300 303 305 305 304 301 299 298 298 298 300 302 303 303 303 304 307 308 308 309 310 311 312 313 313 312 312 309 305 302 300 298 297 300 303 306 307 307 306 306 305 304 306 309 311 312 311 310 308 307 306 304 302
322 323 324 325 325 322 318 315 312 311 310 308 306 305 303 302 301 300 298 295 293 293 294 292 293 297 301 304 306 307 305 303 305 309 310 309 308 306 304 304 305 304 304 304 304 305 305 306 306 307 307 308 310 311 312 313 314 314 314 312 308 302 298 295 294 295 298 303 305 305 302 300 299 301 304 308 309 307 304 304 306 306 303 300 298
320 321 321 323 323 320 315 312 312 312 311 309 307 306 305 304 303 301 298 296 295 295 294 294 296 299 303 306 307 306 304 303 304 306 306 306 306 305 306 307 308 307 306 306 305 304 304 306 307 309 309 309 311 310 310 310 312 314 315 316 315 312 308 305 301 298 298 298 298 298 296 293 291 292 295 298 299 300 301 302 306 308 308 306 304
317 317 318 318 319 316 313 311 312 312 311 309 309 309 308 306 304 302 299 298 297 297 296 297 298 301 304 306 307 306 306 305 304 305 306 306 304 303 304 306 307 307 307 305 303 302 303 307 310 312 312 314 314 313 310 309 310 312 314 316 316 317 317 314 310 304 300 298 296 293 286 280 278 280 283 285 286 289 293 298 302 304 305 304 301
317 317 316 316 316 315 313 312 312 310 310 309 309 308 308 307 305 304 303 301 300 300 299 299 301 304 305 307 309 310 309 309 309 308 308 307 303 302 304 306 307 307 304 300 298 298 301 305 307 307 307 309 311 312 312 311 309 308 310 314 315 314 313 312 310 305 299 298 299 293 280 270 269 274 275 274 275 279 286 293 297 298 299 298 295
318 317 315 314 314 313 313 314 313 311 311 310 309 309 309 308 307 307 306 305 304 304 304 303 305 308 309 310 312 313 312 311 311 310 310 310 307 306 306 307 305 303 299 295 296 298 300 301 304 304 303 303 304 306 307 307 307 307 307 310 313 312 309 306 301 295 293 297 300 292 274 262 261 265 265 264 267 274 281 286 290 292 293 291 288
318 316 313 312 311 310 312 313 313 312 311 311 310 310 311 311 311 311 310 310 309 309 309 309 310 311 311 311 312 312 312 313 313 311 310 310 309 308 307 304 300 297 295 295 296 297 299 301 304 306 308 307 306 304 302 301 301 303 303 305 308 307 303 298 291 286 289 294 294 286 271 258 253 253 255 259 264 270 273 276 280 284 286 284 280
318 316 313 311 309 309 310 311 311 311 312 311 311 310 311 312 313 313 313 313 314 313 314 315 315 314 313 312 311 312 313 314 314 314 313 311 309 307 304 299 296 294 292 293 295 297 302 308 311 311 312 312 310 309 306 302 299 297 297 301 305 303 296 290 286 287 291 293 289 284 273 258 245 240 244 252 260 265 269 272 273 275 277 277 276
318 317 315 313 310 308 308 309 310 311 311 311 311 310 310 311 313 314 314 315 316 317 318 319 319 319 317 316 315 315 315 314 314 315 313 309 304 302 301 300 299 296 293 293 298 305 312 316 317 316 318 320 320 320 317 312 307 304 301 298 297 294 289 288 292 296 298 292 283 277 270 260 250 248 254 262 268 272 275 277 273 269 267 268 273
318 317 314 313 311 308 306 308 309 309 310 310 309 309 310 311 311 312 314 315 316 318 319 319 320 321 320 319 319 319 318 316 314 311 308 304 301 303 304 301 298 295 295 300 310 317 320 321 319 318 320 324 325 327 327 323 320 315 308 299 294 290 287 287 290 294 292 282 271 267 265 264 266 271 275 278 279 279 279 279 275 270 266 269 275
318 317 315 312 310 307 306 308 308 308 310 310 308 308 309 310 310 312 313 313 314 316 318 318 319 319 318 319 320 320 319 318 313 306 303 305 305 305 303 298 294 295 302 312 320 323 321 318 316 315 315 317 322 328 331 330 325 315 305 302 304 305 303 300 296 292 286 276 268 265 265 266 266 268 272 276 280 281 281 281 279 276 275 276 277
317 317 315 312 309 308 308 309 309 310 311 310 308 308 309 309 310 313 314 313 313 315 315 316 316 316 316 319 320 318 316 316 313 308 308 310 307 302 297 294 295 300 309 317 321 320 316 313 314 314 311 312 316 322 326 327 325 321 317 314 314 312 310 308 304 298 291 280 270 264 263 263 262 262 266 273 277 279 281 281 280 280 279 279 277